DW5683 Weather Reports


time (UTC)temp
C
wind
direction
speed
KPH
gust
KPH
rain 1hr
cm
rain 24hr
cm
rain mn
cm
humidity
%
barometer
mb
20260902064541 16 138 0.0 8.0 0.00 0.00 0.00 76 1015.7
20260902063046 16 155 1.6 8.0 0.00 0.00 0.00 74 1016.0
20260902061549 16 0 1.6 8.0 0.00 0.00 0.00 73 1016.1
20260902060054 16 156 1.6 8.0 0.00 0.00 0.00 72 1016.0
20260902054545 16 0 0.0 9.7 0.00 0.00 0.00 71 1016.0
20260902053042 16 158 1.6 8.0 0.00 0.00 0.00 70 1016.0
20260902051542 16 172 1.6 8.0 0.00 0.00 0.00 69 1015.9
20260902050104 17 173 1.6 4.8 0.00 0.00 0.00 68 1015.9
20260902044604 17 0 0.0 3.2 0.00 0.00 0.00 66 1015.8
20260902043041 17 0 0.0 6.4 0.00 0.00 0.00 65 1015.5
20260902041541 18 173 3.2 11.3 0.00 0.00 0.00 64 1015.4
20260902040051 18 0 1.6 9.7 0.00 0.00 0.00 62 1015.0
20260902034554 18 187 1.6 9.7 0.00 0.00 0.00 60 1014.7
20260902033041 19 185 4.8 14.5 0.00 0.00 0.00 58 1014.5
20260902031549 19 192 4.8 12.9 0.00 0.00 0.00 56 1014.2
20260902030044 20 209 1.6 9.7 0.00 0.00 0.00 54 1014.0
20260902024549 20 203 4.8 19.3 0.00 0.00 0.00 53 1013.8
20260902023043 20 217 1.6 11.3 0.00 0.00 0.00 52 1013.7
20260902021552 21 171 3.2 14.5 0.00 0.00 0.00 51 1013.5
20260902020040 22 201 3.2 14.5 0.00 0.00 0.00 49 1013.5
20260902014542 23 186 4.8 16.1 0.00 0.00 0.00 46 1013.3
20260902013047 23 203 4.8 16.1 0.00 0.00 0.00 43 1013.3
20260902011543 24 178 0.0 17.7 0.00 0.00 0.00 43 1013.2
20260902010044 24 213 1.6 12.9 0.00 0.00 0.00 42 1013.3
20260902004549 24 225 1.6 14.5 0.00 0.00 0.00 42 1013.2
20260902003045 25 196 4.8 14.5 0.00 0.00 0.00 41 1013.4
20260902001541 25 177 4.8 12.9 0.00 0.00 0.00 39 1013.4
20260902000047 25 186 3.2 14.5 0.00 0.00 0.00 39 1013.5
20260901234548 25 185 3.2 19.3 0.00 0.00 0.00 39 1013.5
20260901233042 25 177 6.4 17.7 0.00 0.00 0.00 41 1013.5
20260901231548 25 168 1.6 11.3 0.00 0.00 0.00 41 1013.7
20260901230051 25 0 1.6 17.7 0.00 0.00 0.00 42 1013.9
20260901224542 25 174 8.0 16.1 0.00 0.00 0.00 42 1014.0
20260901223050 25 194 4.8 14.5 0.00 0.00 0.00 43 1014.0
20260901221547 26 203 4.8 14.5 0.00 0.00 0.00 42 1014.2
20260901220041 25 284 4.8 19.3 0.00 0.00 0.00 43 1014.2
20260901214542 25 0 1.6 12.9 0.00 0.00 0.00 44 1014.3
20260901213109 24 189 6.4 16.1 0.00 0.00 0.00 47 1014.4
20260901211543 24 0 0.0 17.7 0.00 0.00 0.00 46 1014.4
20260901210042 25 0 0.0 11.3 0.00 0.00 0.00 45 1014.6
20260901204548 24 222 4.8 12.9 0.00 0.00 0.00 47 1014.7
20260901203043 23 0 3.2 11.3 0.00 0.00 0.00 48 1015.0
20260901201541 23 182 4.8 14.5 0.00 0.00 0.00 49 1015.1
20260901200048 23 186 3.2 14.5 0.00 0.00 0.00 51 1015.0
20260901194544 22 184 3.2 17.7 0.00 0.00 0.00 53 1015.2
20260901193042 22 0 3.2 11.3 0.00 0.00 0.00 55 1015.5
20260901191547 22 192 3.2 11.3 0.00 0.00 0.00 56 1015.4
20260901190046 21 194 3.2 12.9 0.00 0.00 0.00 58 1015.6
20260901184551 21 136 3.2 16.1 0.00 0.00 0.00 54 1015.8
20260901183045 21 177 1.6 14.5 0.00 0.00 0.00 57 1015.6
20260901181543 20 102 4.8 20.9 0.00 0.00 0.00 57 1015.7
20260901180043 20 184 1.6 11.3 0.00 0.00 0.00 59 1015.6
20260901174541 19 113 3.2 20.9 0.00 0.00 0.00 61 1015.5
20260901173045 20 121 9.7 20.9 0.00 0.00 0.00 58 1015.6
20260901171602 20 122 3.2 19.3 0.00 0.00 0.00 61 1015.5
20260901170048 20 169 3.2 17.7 0.00 0.00 0.00 61 1015.1
20260901164554 18 125 6.4 17.7 0.00 0.00 0.00 64 1015.3
20260901163042 18 128 3.2 19.3 0.00 0.00 0.00 67 1015.3
20260901161542 17 138 3.2 14.5 0.00 0.00 0.00 69 1015.1
20260901160045 17 142 0.0 12.9 0.00 0.00 0.00 71 1014.9
20260901154542 16 141 1.6 8.0 0.00 0.00 0.00 73 1014.8
20260901153055 16 141 1.6 11.3 0.00 0.00 0.00 74 1014.5
20260901151547 15 142 0.0 12.9 0.00 0.00 0.00 75 1014.3
20260901150043 15 142 3.2 12.9 0.00 0.00 0.00 76 1014.3
20260901144541 15 136 1.6 12.9 0.00 0.00 0.00 76 1014.0
20260901143049 15 140 0.0 14.5 0.00 0.00 0.00 77 1013.8
20260901141544 15 121 0.0 9.7 0.00 0.00 0.00 78 1013.4
20260901140042 15 120 1.6 14.5 0.00 0.00 0.00 79 1013.2
20260901134550 15 117 1.6 9.7 0.00 0.00 0.00 80 1013.3
20260901133050 14 117 1.6 9.7 0.00 0.00 0.00 80 1013.2
20260901131543 14 117 3.2 11.3 0.00 0.00 0.00 81 1012.9
20260901130045 14 117 3.2 14.5 0.00 0.00 0.00 81 1012.6
20260901124545 14 119 3.2 11.3 0.00 0.00 0.00 81 1012.8
20260901123044 14 119 3.2 14.5 0.00 0.00 0.00 81 1012.9
20260901121545 14 122 1.6 11.3 0.00 0.00 0.00 81 1013.0
20260901120041 14 125 4.8 20.9 0.00 0.00 0.00 80 1012.7
20260901114557 15 117 4.8 14.5 0.00 0.00 0.00 80 1012.5
20260901113043 15 119 3.2 11.3 0.00 0.00 0.00 80 1012.5
20260901111547 14 119 3.2 9.7 0.00 0.00 0.00 80 1012.4
20260901110044 15 120 3.2 12.9 0.00 0.00 0.00 80 1012.4
20260901104544 15 121 4.8 14.5 0.00 0.00 0.00 80 1012.3
20260901103042 15 123 1.6 11.3 0.00 0.00 0.00 80 1012.3
20260901101544 14 118 3.2 11.3 0.00 0.00 0.00 81 1012.1
20260901100049 14 115 1.6 12.9 0.00 0.00 0.00 80 1012.1
20260901094543 14 116 3.2 12.9 0.00 0.00 0.00 80 1012.2
20260901093043 14 117 3.2 11.3 0.00 0.00 0.00 80 1012.3
20260901091549 14 117 1.6 12.9 0.00 0.00 0.00 80 1012.2
20260901090045 14 117 1.6 12.9 0.00 0.00 0.00 81 1012.4
20260901084540 14 116 3.2 14.5 0.00 0.00 0.00 80 1012.3
20260901083041 14 117 3.2 12.9 0.00 0.00 0.00 80 1012.4
20260901081544 14 112 3.2 14.5 0.00 0.00 0.00 81 1012.4
20260901080049 14 114 1.6 14.5 0.00 0.00 0.00 80 1012.4
20260901074548 14 120 3.2 14.5 0.00 0.00 0.00 80 1012.4
20260901073042 14 0 3.2 9.7 0.00 0.00 0.00 80 1012.4
20260901071548 15 122 1.6 11.3 0.00 0.00 0.00 80 1012.4
20260901070044 15 122 3.2 12.9 0.00 0.00 0.00 80 1012.4